Zurück zum Katalog

CZ-6A DEB

AktivPO
NORAD 61319·DEBRIS·🇨🇳 China

Gestartet Aug 6, 2024 von Taiyuan Satellite Launch Center

Loading…

Nächste Überflüge (nächste 24 Stunden)

TLE

AktuellSource: Space-Track

Epoche: Sep 14, 2026, 11:12 UTC

1 61319U 24140UG  26257.46683759  .00001650  00000-0  52461-3 0  9994
2 61319  89.0237 264.7169 0034532 305.0991  54.6973 14.39201472107117

Verfolge CZ-6A DEB in Echtzeit mit AllMySat

Download on the App Store